Le Raizet Airport, Guadeloupe

5:19 PM AST on June 24, 2018 (GMT -0400)
Le Raizet

Weather History for TFFR - October, 2017

Change the Weather History Date:

Thursday, October 12, 2017

  Actual Average Record
Temperature  
Mean Temperature 82 °F -  
Max Temperature 89 °F 85 °F 91 °F (2015)
Min Temperature 75 °F 72 °F 73 °F (1999)
Cooling Degree Days 17    
Growing Degree Days 32 (Base 50)    
Moisture  
Dew Point 74 °F    
Average Humidity 77    
Maximum Humidity 94    
Minimum Humidity 54    
Precipitation  
Precipitation 0.02 in 0.30 in - ()
Sea Level Pressure  
Sea Level Pressure 29.87 in    
Wind  
Wind Speed 4 mph ()    
Max Wind Speed 14 mph    
Max Gust Speed -    
Visibility 6.8 miles    
Events      
Averages and records for this station are not official NWS values.
T = Trace of Precipitation, MM = Missing Value Source: Averaged Metar Reports

Daily Weather History Graph

Daily Weather History Graph

Search for Another Location

Airport or City:

Astronomy

Oct. 12, 2017 Rise Set
Actual Time 5:57 AM AST 5:46 PM AST
Civil Twilight 5:36 AM AST 6:08 PM AST
Nautical Twilight 5:11 AM AST 6:33 PM AST
Astronomical Twilight 4:46 AM AST 6:58 PM AST
Moon No Moon Rise 12:34 PM AST (10/12)
Length of Visible Light 12h 32m
Length of Day
11h 48m
Waning Gibbous, 49% of the Moon is Illuminated
Oct 12
Waning Gibbous
Oct 19
New
Oct 27
First Quarter
Nov 4
Full
Nov 10
Last Quarter

Hourly Weather History & Observations

Time (AST) Temp. Heat Index Dew Point Humidity Pressure Visibility Wind Dir Wind Speed Gust Speed Precip Events Conditions
12:00 AM 78.8 °F - 75.2 °F 89% 29.89 in - Variable 2.3 mph - N/A   Clear
12:30 AM 77.0 °F - 73.4 °F 89% 29.89 in - East 1.2 mph - N/A   Clear
1:00 AM 77.0 °F - 73.4 °F 89% 29.89 in - Calm Calm - N/A   Clear
1:30 AM 77.0 °F - 73.4 °F 89% 29.86 in - Calm Calm - N/A   Clear
2:00 AM 76 °F - 73 °F 88% 29.88 in 11 mi SE 1.2 mph - -   Clear
2:00 AM 75.2 °F - 73.4 °F 94% 29.86 in 6.2 mi SE 1.2 mph - N/A   Partly Cloudy
2:30 AM 77.0 °F - 73.4 °F 89% 29.86 in 6.2 mi ESE 2.3 mph - N/A   Partly Cloudy
3:00 AM 77.0 °F - 75.2 °F 94% 29.86 in - East 2.3 mph - N/A   Clear
3:30 AM 77.0 °F - 73.4 °F 89% 29.86 in - East 2.3 mph - N/A   Clear
4:00 AM 77.0 °F - 73.4 °F 89% 29.86 in 6.2 mi East 1.2 mph - N/A   Partly Cloudy
4:30 AM 77.0 °F - 73.4 °F 89% 29.83 in 6.2 mi ESE 2.3 mph - N/A   Partly Cloudy
5:00 AM 76 °F - 73 °F 88% 29.86 in 11 mi NNE 1.2 mph - -   Clear
5:00 AM 75.2 °F - 73.4 °F 94% 29.86 in - Variable 1.2 mph - N/A   Clear
5:30 AM 75.2 °F - 73.4 °F 94% 29.86 in - SE 2.3 mph - N/A   Clear
6:00 AM 77.0 °F - 73.4 °F 89% 29.86 in - ESE 2.3 mph - N/A   Clear
6:30 AM 77.0 °F - 75.2 °F 94% 29.86 in - ESE 3.5 mph - N/A   Clear
7:00 AM 80.6 °F 86.2 °F 75.2 °F 84% 29.89 in - Calm Calm - N/A   Clear
7:30 AM 82.4 °F 89.5 °F 75.2 °F 79% 29.89 in - ESE 4.6 mph - N/A   Clear
8:00 AM 85 °F - 75 °F 65% 29.91 in 22 mi East 5.8 mph - -   Clear
8:00 AM 84.2 °F 92.3 °F 75.2 °F 74% 29.89 in 6.2 mi East 5.8 mph - N/A   Partly Cloudy
8:30 AM 86.0 °F 93.4 °F 73.4 °F 66% 29.92 in 6.2 mi East 9.2 mph - N/A   Scattered Clouds
9:00 AM 87.8 °F 95.6 °F 73.4 °F 62% 29.92 in 6.2 mi East 8.1 mph - N/A   Mostly Cloudy
9:30 AM 86.0 °F 91.8 °F 71.6 °F 62% 29.92 in 6.2 mi ENE 9.2 mph - N/A   Mostly Cloudy
10:00 AM 87.8 °F 95.6 °F 73.4 °F 62% 29.92 in 6.2 mi East 8.1 mph - N/A   Mostly Cloudy
10:30 AM 86.0 °F 93.4 °F 73.4 °F 66% 29.92 in 6.2 mi ENE 11.5 mph - N/A   Mostly Cloudy
11:00 AM 87 °F - 75 °F 60% 29.92 in 34 mi ESE 9.2 mph - -   Clear
11:00 AM 87.8 °F 97.6 °F 75.2 °F 66% 29.92 in 6.2 mi ESE 9.2 mph - N/A   Mostly Cloudy
11:30 AM 87.8 °F 97.6 °F 75.2 °F 66% 29.89 in 6.2 mi ESE 11.5 mph - N/A   Mostly Cloudy
12:00 PM 87.8 °F 93.8 °F 71.6 °F 58% 29.89 in 6.2 mi East 11.5 mph - N/A   Mostly Cloudy
12:30 PM 86.0 °F 95.1 °F 75.2 °F 70% 29.89 in 6.2 mi East 10.4 mph - N/A   Mostly Cloudy
1:00 PM 87.8 °F 95.6 °F 73.4 °F 62% 29.86 in 6.2 mi East 9.2 mph - N/A   Mostly Cloudy
1:30 PM 84.2 °F 90.9 °F 73.4 °F 70% 29.86 in 6.2 mi ESE 13.8 mph - N/A   Mostly Cloudy
2:00 PM 87 °F - 73 °F 54% 29.87 in 37 mi ESE 13.8 mph - -   Clear
2:00 PM 87.8 °F 95.6 °F 73.4 °F 62% 29.86 in 6.2 mi ESE 13.8 mph - N/A   Mostly Cloudy
2:30 PM 87.8 °F 93.8 °F 71.6 °F 58% 29.86 in 6.2 mi ESE 12.7 mph - N/A   Mostly Cloudy
3:00 PM 87.8 °F 93.8 °F 71.6 °F 58% 29.83 in 6.2 mi SE 10.4 mph - N/A   Mostly Cloudy
3:30 PM 86.0 °F 91.8 °F 71.6 °F 62% 29.83 in 6.2 mi East 9.2 mph - N/A   Mostly Cloudy
4:00 PM 86.0 °F 91.8 °F 71.6 °F 62% 29.83 in 6.2 mi ESE 10.4 mph - N/A   Mostly Cloudy
4:30 PM 86.0 °F 93.4 °F 73.4 °F 66% 29.83 in 6.2 mi ESE 8.1 mph - N/A   Partly Cloudy
5:00 PM 85 °F - 73 °F 59% 29.85 in 28 mi East 10.4 mph - -   Clear
5:00 PM 86.0 °F 93.4 °F 73.4 °F 66% 29.83 in 6.2 mi East 10.4 mph - N/A   Mostly Cloudy
5:30 PM 84.2 °F 90.9 °F 73.4 °F 70% 29.83 in 6.2 mi East 5.8 mph - N/A   Partly Cloudy
6:00 PM 82.4 °F 88.2 °F 73.4 °F 74% 29.86 in 6.2 mi East 4.6 mph - N/A   Partly Cloudy
6:30 PM 82.4 °F 88.2 °F 73.4 °F 74% 29.86 in 6.2 mi ESE 4.6 mph - N/A   Partly Cloudy
7:00 PM 80.6 °F 86.2 °F 75.2 °F 84% 29.86 in - ESE 3.5 mph - N/A   Clear
7:30 PM 80.6 °F 85.4 °F 73.4 °F 79% 29.86 in - East 2.3 mph - N/A   Clear
8:00 PM 80 °F - 74 °F 77% 29.88 in 12 mi ESE 2.3 mph - -   Clear
8:00 PM 80.6 °F 85.4 °F 73.4 °F 79% 29.86 in - ESE 2.3 mph - N/A   Clear
8:30 PM 78.8 °F - 75.2 °F 89% 29.89 in - ENE 2.3 mph - N/A   Clear
9:00 PM 78.8 °F - 75.2 °F 89% 29.89 in - SE 2.3 mph - N/A   Clear
9:30 PM 78.8 °F - 73.4 °F 83% 29.89 in - East 2.3 mph - N/A   Clear
10:00 PM 78.8 °F - 73.4 °F 83% 29.89 in - Calm Calm - N/A   Clear
10:30 PM 77.0 °F - 73.4 °F 89% 29.89 in - NW 2.3 mph - N/A   Clear
11:00 PM 77 °F - 73 °F 85% 29.90 in 9 mi Calm Calm - -   Clear
11:00 PM 77.0 °F - 73.4 °F 89% 29.89 in - Calm Calm - N/A   Clear
11:30 PM 77.0 °F - 73.4 °F 89% 29.89 in - Calm Calm - N/A   Clear